SL-8 DEB

基本信息
目录编号:
5301
目录名称:
SL-8 DEB
国际标识:
1971-035D
轨道中心:
EARTH
物体状态:
在轨
发射日期:
1971-04-23 UTC
轨道信息
数据来源: 国际轨道数据
星历时间: 2026-09-05T12:04:57+0800
半长轴: 6977.036km
偏心率: 0.0009228
轨道倾角: 74.022°
近地点辐角: 211.020°
升交点赤经: 65.869°
平近点角: 149.043°
近地点: 592.46km
远地点: 605.338km
周期: 96.664分钟
每日圈数: 14.896916
详细信息
发射场:
PKMTR
轨道高度:
LEO
数据来源:
AOE Integration Group
参考系:
TEME
时间系统:
UTC
历元类型:
SGP4
2D轨道图
3D轨道图
轨道高度分析图
轨道倾角分析图
轨道综合分析图
查看轨道综合分析图